Preview of NWS' New Version of Forecast
This preview is not operational and should not be used for support decisions.

Regional Weather Roundup (RWR)

Issued by National Weather Service (NWS)

                            
000
ASCA42 TJSJ 231310
RWRPR 
PUERTO RICO/U.S. VIRGIN ISLANDS HOURLY WEATHER ROUNDUP
NATIONAL WEATHER SERVICE SAN JUAN PR
900 AM AST TUE JUL 23 2019

PRZ001>002-007>008-010-231400-
PUERTO RICO
  
CITY           SKY/WX    TMP DP  RH WIND       PRES   REMARKS
SAN JUAN LMM   MOSUNNY   88  75  66 E15       30.07R HX  97           
AGUADILLA      SUNNY     82  75  78 E8        30.08R                  
CEIBA          PTSUNNY   84  75  74 E12       30.09R HX  92           
$$

VIZ001>002-231400-
U.S. VIRGIN ISLANDS
  
CITY           SKY/WX    TMP DP  RH WIND       PRES   REMARKS
CHARLOTTE AMA  MOSUNNY   84  75  74 SE17      30.06S HX  92           
CHRISTIANSTED  LGT RAIN  84  75  74 E16       30.07R HX  92           
$$

HOURLY WEATHER ROUNDUP FOR THE NEWS MEDIA
  
CITY           SKY/WX    TMP DP  RH WIND       PRES   REMARKS
ORLANDO        FAIR      80  74  81 SW5       29.97S                  
NEW YORK       PTSUNNY   68  67  96 N16       29.77R                  
NEWARK         CLOUDY    70  65  84 NW15      29.79R                  
CHICAGO        FAIR      68  56  65 NW8       30.12R                  
HARTFORD       CLOUDY    68  65  90 N6        29.76R                  
BOSTON         LGT RAIN  66  63  90 NE13      29.81                   
DALLAS         MOSUNNY   76  62  62 N6        30.13R                  
PHILADELPHIA   LGT RAIN  70  65  84 W10       29.85R                  
LOS ANGELES    CLOUDY    66  63  90 SW5       29.96R                  
WASHINGTON DC  LGT RAIN  68  64  87 W3        29.92R